[Date Prev][Date Next][Thread Prev][Thread Next] - [Date Index][Thread Index][Author Index]

2 Line ISS keps 12-1



ISS
1 25544U 98067A   05334.85784037  .00010250  00000-0  79152-4 0  8543
2 25544 051.6433 126.6918 0008794 347.5961 174.6147 15.72590700401911
----
Via the sarex mailing list at AMSAT.ORG courtesy of AMSAT-NA.
To unsubscribe, send "unsubscribe sarex" to Majordomo@amsat.org



AMSAT Top AMSAT Home